Location: Casone le Fosse
(44.6547°N, 12.1103°E)
Time: 04:17:50
(UTC+00:00)

CZ-2C R/B - Pass Details

Date: 29 October 2020
Orbit: 703 x 909 km, 98.1° (Epoch: 01 December)

Event Time Altitude Azimuth Distance (km) Brightness Sun altitude
Rises 17:34:16 0° 157° (SSE) 3,521 6.2 -16.5°
Reaches altitude 10° 17:36:42 10° 155° (SSE) 2,576 5.5 -17.0°
Maximum altitude 17:42:26 68° 74° (ENE) 951 3.2 -18.0°
Drops below altitude 10° 17:48:00 10° 352° (N) 2,506 5.7 -19.0°
Sets 17:50:21 0° 350° (N) 3,419 6.5 -19.4°
